Notices

What's New in latest Release from April 7th, 2021:

- Updated Glossary, including Speed of Maximum Gust, and Total Hourly Precipitation

- Updated national and regional climate services offices contacts and prices information

- Addition of station inventory lists for 1981-2010, 1971-2000, and 1961-1990 Normals.

If you haven't already, please take our survey and provide feedback about our website: https://eccc.sondage-survey.ca/f/LanguageSelection.aspx?s=442ca660-fcf1-47c0-95a9-59707d6fd709

Hourly Data Report for March 01, 2003

TORONTO CITY
ONTARIO

43°40'00.000" N
79°24'00.000" W
112.50 m
6158355
71508
XTO

Download Data

Hourly Data (March 2003)
Hourly Data Report for March 1, 2003
TIME
LST
Temp Definition
°C
Dew Point Definition
°C
Rel Hum Definition
%
Precip. Amount Definition
mm

Wind Dir Definition
10's deg

Wind Spd Definition
km/h
Visibility Definition
km
Stn Press Definition
kPa
Hmdx Definition


Wind Chill Definition


Weather Definition


00:00 -1.7 -6.5 70   LegendMM LegendMM LegendMM 100.77     LegendNANA
01:00 -1.4 -6.6 68   LegendMM LegendMM LegendMM 100.77     LegendNANA
02:00 -1.9 -7.5 65   LegendMM LegendMM LegendMM 100.76     LegendNANA
03:00 -2.2 -8.2 63   LegendMM LegendMM LegendMM 100.72     LegendNANA
04:00 -2.7 -9.7 59   LegendMM LegendMM LegendMM 100.67     LegendNANA
05:00 -2.7 -9.1 61   LegendMM LegendMM LegendMM 100.67     LegendNANA
06:00 -2.3 -10.7 52   LegendMM LegendMM LegendMM 100.69     LegendNANA
07:00 -2.7 -9.9 58   LegendMM LegendMM LegendMM 100.71     LegendNANA
08:00 -2.1 -8.3 62   LegendMM LegendMM LegendMM 100.73     LegendNANA
09:00 -1.3 -7.3 64   LegendMM LegendMM LegendMM 100.74     LegendNANA
10:00 0.2 -5.1 67   LegendMM LegendMM LegendMM 100.70     LegendNANA
11:00 0.7 -4.4 69   LegendMM LegendMM LegendMM 100.63     LegendNANA
12:00 0.7 -5.2 65   LegendMM LegendMM LegendMM 100.58     LegendNANA
13:00 1.4 -4.7 64   LegendMM LegendMM LegendMM 100.48     LegendNANA
14:00 0.8 -5.5 63   LegendMM LegendMM LegendMM 100.40     LegendNANA
15:00 1.0 -4.1 69   LegendMM LegendMM LegendMM 100.33     LegendNANA
16:00 0.5 -3.5 75   LegendMM LegendMM LegendMM 100.26     LegendNANA
17:00 0.5 -3.3 76   LegendMM LegendMM LegendMM 100.20     LegendNANA
18:00 0.3 -2.3 83   LegendMM LegendMM LegendMM 100.14     LegendNANA
19:00 0.5 -1.7 85   LegendMM LegendMM LegendMM 100.12     LegendNANA
20:00 0.7 -1.0 88   LegendMM LegendMM LegendMM 100.05     LegendNANA
21:00 0.7 -0.7 90   LegendMM LegendMM LegendMM 99.95     LegendNANA
22:00 0.9 -0.6 90   LegendMM LegendMM LegendMM 99.89     LegendNANA
23:00 1.3 -0.7 87   LegendMM LegendMM LegendMM 99.79     LegendNANA

Notes on Data Quality.

Legend

  • E = Estimated
  • M = Missing
  • NA = Not Available*
  • [empty] = Indicates an unobserved value
Date modified: